Hauptseite
METAR-TAF:

METAR-TAF

Flughäfen :

Bohrplattform

Ula, Norwegen

Breite: 59-06-39N, Länge: 2-50-45E, Höhe: 0 m

Beobachtung

Neuester Wetterbericht von vor 38 Minuten, um 01:20 UTC
Wind 20 kt aus Nordost
Temperatur 15°C
Luftfeuchtigkeit 72%
Luftdruck 1027 hPa
Sichtweite 10 km oder mehr

METAR: ENLA 260120Z AUTO 05020KT 9999NDV NCD 15/10 Q1027 W///S2

Zeit: 03:58 (01:58 UTC)


TAF: fehlend

Wetterbeobachtungen und Prognosen von mehr als 4000 Flughäfen (METAR und TAF Bericht).

Die verfügbaren Stationen werden durch gelbe und rote Markierungen auf der Karte dargestellt.

Führen Sie die Maus auf sie, um den Namen der Station zu sehen.

Darauf klicken, um die Beobachtung von Wetterbeobachtungen und Prognosen zu sehen.

Um die Karte zu ändern : klicken Sie auf den grünen Tasten mit einem schwarzen Kreuz Zum Vergrößern, auf den grünen Button mit einem Gedankenstrich zu verkleinern, oder auf die grünen Pfeile für benachbarte Karten.


METAR-TAF: